Weather in Burguy

Russia / Republic of Buryatia     50°26′51″N   103°46′47″E
temp.,
°C
wind,
m/s
gust,
m/s
humid.,
%
clouds,
%
prec.,
mm/h
press.,
hPa
HPBL,
m
13 may, thu
thu1323:00+3n2380100 0.0 101257
02:00+4ne1285100 0.3 1011161
05:00+3ene1292100 0.1 1011324
08:00+2ne1295100 0.3 1012365
11:00+2ese1296100 1.5 1012221
14:00+4ene2483100 2.9 1011762
17:00+5ne3455100 0.5 10121462
20:00+2ne3658100 0.6 1016624
14 may, fri
fri1423:00−3nnw11783 0.0 102118
02:00−4nw21845 0.0 102317
05:00−5wnw11823 0.0 102411
08:00+1w12490 0.0 1022449
11:00+7w22260 0.0 10181342
14:00+11w23180 0.0 10142125
17:00+12sw13170 0.0 10122694
20:00+8se21310 0.0 101311
15 may, sat
sat1523:00+2e01420 0.0 101710
02:000ese01510 0.0 101810
05:00−1wnw005965 0.0 101810
08:00+5w114593 0.0 1016245
11:00+12nw3634100 0.0 10121715
14:00+15n262981 0.1 10102341
17:00+13n3434100 0.0 10121389
20:00+9n115259 0.0 101412
16 may, sun
sun1623:00+4n117099 0.0 101810
02:00+3nnw11755 0.0 101910
05:00+1wsw117619 0.0 101910
08:00+7wsw124791 0.0 1017286
11:00+15w363070 0.0 10131338
14:00+20wnw46235 0.0 10092562
17:00+21w352046 0.0 10073153
20:00+15nw1239100 0.0 100824
17 may, mon
mon1723:00+8n22734 0.3 101133
02:00+6nne11825 0.3 101210
05:00+4n11875 0.0 101210
08:00+10wsw016240 0.0 1009280
11:00+18wnw373398 0.0 10062106
14:00+19wnw5727100 0.0 10042837
17:00+16ese334876 0.1 10051033
20:00+11ene1474100 0.6 1008241